Weather History for K2WX - August, 2014

Change the Weather History Date:

Sunday, August 24, 2014

  Actual Average Record
Temperature  
Mean Temperature 55 °F 69 °F  
Max Temperature 62 °F 84 °F 99 °F (1997)
Min Temperature 48 °F 54 °F 44 °F (2010)
Degree Days  
Heating Degree Days 10 1  
Month to date heating degree days 13 19  
Since 1 June heating degree days 164 153  
Since 1 July heating degree days 29 39  
Cooling Degree Days 0 5  
Month to date cooling degree days 152 167  
Year to date cooling degree days 357 442  
Since 1 June cooling degree days 327 436  
Growing Degree Days 4 (Base 50)    
Moisture  
Dew Point 46 °F    
Average Humidity 78    
Maximum Humidity 100    
Minimum Humidity 55    
Precipitation  
Precipitation 0.00 in 0.02 in 0.14 in (1998)
Month to date precipitation 3.13 1.10  
Year to date precipitation 13.92 11.83  
Sea Level Pressure  
Sea Level Pressure 29.76 in    
Wind  
Wind Speed 28 mph (West)    
Max Wind Speed 44 mph    
Max Gust Speed 52 mph    
T = Trace of Precipitation, MM = Missing Value Source: NWS Daily Summary

Daily Weather History Graph

Daily Weather History Graph

Search for Another Location

Airport or City:

Trip Planner

Search our weather history database for the weather conditions in past years. The results will help you decide how hot, cold, wet, or windy it might be!

Date:

Astronomy

Aug. 24, 2014 Rise Set
Actual Time 6:05 AM MDT 7:46 PM MDT
Civil Twilight 5:34 AM MDT 8:17 PM MDT
Nautical Twilight 4:56 AM MDT 8:55 PM MDT
Astronomical Twilight 4:14 AM MDT 9:36 PM MDT
Moon 5:18 AM MDT (8/24) 7:04 PM MDT (8/24)
Length of Visible Light 14h 43m
Length of Day
13h 40m
Waning Crescent, 1% of the Moon is Illuminated
Aug 24
Waning Crescent
Aug 25
New
Sep 2
First Quarter
Sep 8
Full
Sep 15
Last Quarter

Hourly Weather History & Observations

Time (MDT) Temp. Dew Point Humidity Pressure Visibility Wind Dir Wind Speed Gust Speed Precip Events Conditions
12:56 AM 57.9 °F 57.0 °F 97% 29.65 in - WSW 8.1 mph - 0.02 in   Unknown
1:56 AM 57.0 °F 55.0 °F 93% 29.65 in - WSW 16.1 mph - N/A   Unknown
2:56 AM 54.0 °F 51.1 °F 90% 29.64 in - WSW 17.3 mph - N/A   Unknown
3:56 AM 54.0 °F 52.0 °F 93% 29.63 in - SW 21.9 mph 26.5 mph N/A   Unknown
4:56 AM 53.1 °F 50.0 °F 89% 29.65 in - WSW 27.6 mph 36.8 mph N/A   Unknown
5:56 AM 53.1 °F 48.9 °F 86% 29.66 in - WSW 31.1 mph 36.8 mph N/A   Unknown
6:56 AM 52.0 °F 48.0 °F 86% 29.68 in - West 25.3 mph 36.8 mph N/A   Unknown
7:56 AM 53.1 °F 46.9 °F 80% 29.69 in - WSW 34.5 mph 40.3 mph N/A   Unknown
8:56 AM 54.0 °F 46.9 °F 77% 29.70 in - West 28.8 mph 44.9 mph N/A   Unknown
9:56 AM 55.9 °F 46.0 °F 69% 29.72 in - West 28.8 mph 47.2 mph N/A   Unknown
10:56 AM 57.0 °F 45.0 °F 64% 29.73 in - West 34.5 mph 43.7 mph N/A   Unknown
11:56 AM 60.1 °F 44.1 °F 55% 29.73 in - West 39.1 mph 47.2 mph N/A   Unknown
12:56 PM 57.9 °F 45.0 °F 62% 29.75 in - West 32.2 mph 40.3 mph N/A   Unknown
1:56 PM 61.0 °F 45.0 °F 56% 29.75 in - West 31.1 mph 40.3 mph N/A   Unknown
2:56 PM 57.0 °F 45.0 °F 64% 29.78 in - West 35.7 mph 46.0 mph N/A   Unknown
3:56 PM 57.9 °F 44.1 °F 60% 29.79 in - West 31.1 mph 38.0 mph N/A   Unknown
4:56 PM 55.0 °F 43.0 °F 64% 29.81 in - West 32.2 mph 46.0 mph N/A   Unknown
5:56 PM 53.1 °F 43.0 °F 69% 29.84 in - West 29.9 mph 42.6 mph N/A   Unknown
6:56 PM 53.1 °F 43.0 °F 69% 29.86 in - West 27.6 mph 34.5 mph N/A   Unknown
7:56 PM 51.1 °F 43.0 °F 74% 29.87 in - West 29.9 mph 36.8 mph N/A   Unknown
8:56 PM 50.0 °F 42.1 °F 74% 29.89 in - West 25.3 mph 38.0 mph N/A   Unknown
9:56 PM 50.0 °F 43.0 °F 77% 29.91 in - West 31.1 mph 39.1 mph N/A   Unknown
10:56 PM 48.9 °F 42.1 °F 77% 29.92 in - West 24.2 mph 29.9 mph N/A   Unknown
11:56 PM 48.9 °F 44.1 °F 83% 29.93 in - West 17.3 mph 27.6 mph N/A   Unknown